Location: Laupheim
(48.2265°N, 9.8829°E)
Time: 03:12:52
(UTC+01:00)

Tiangong 2 - Visible Passes

Search period start: 24 November 2017 00:00
Search period end: 04 December 2017 00:00
Orbit: 386 x 392 km, 42.8° (Epoch: 23 November)

Date Brightness Start Highest point End Pass type
(mag) Time Alt. Az. Time Alt. Az. Time Alt. Az.
27 Nov 4.0 06:50:02 10° SSW 06:52:05 16° SSE 06:54:07 10° ESE visible
28 Nov 4.2 05:53:04 10° S 05:54:06 11° SSE 05:55:07 10° SE visible
29 Nov 3.4 06:29:40 10° SW 06:32:12 21° SSE 06:34:43 10° ESE visible
30 Nov 3.6 05:33:24 15° S 05:34:09 16° SSE 05:36:15 10° ESE visible
30 Nov 2.8 07:07:35 10° WSW 07:10:26 30° S 07:13:17 10° ESE visible
01 Dec 2.9 06:10:27 16° SW 06:12:18 26° S 06:15:04 10° ESE visible
02 Dec 3.6 05:15:04 19° SE 05:15:04 19° SE 05:16:44 10° ESE visible
02 Dec 2.7 06:47:41 10° WSW 06:50:33 30° S 06:53:25 10° ESE visible
03 Dec 2.5 05:51:55 28° SSW 05:52:24 30° S 05:55:15 10° ESE visible
